Retour au catalogue

STARLINK-35548

ActifCommunicationsVLEO
NORAD 66203·PAYLOAD·🇺🇸 United States

Lancé Oct 26, 2025 depuis Cape Canaveral Space Force Station

Loading…

Prochains Passages (prochaines 24 heures)

TLE

FraisSource: CelesTrak SupGP

Époque: Sep 14, 2026, 21:20 UTC

1 66203C 25243AC  26257.88937500 -.00013637  00000+0 -40298-3 0  2579
2 66203  53.1592  85.6611 0001309  84.4315 219.1468 15.34391661    10

Suivez STARLINK-35548 en temps réel avec AllMySat

Download on the App Store